Погода в Одине

Россия / Тюменская область     56°07′24″N   66°00′52″E
темп.,
°C
ветер,
м/с
пор.,
м/с
влажн.,
%
обл.,
%
осадки,
мм/ч
давл.,
гПа
погр.,
м
15 июня, вт
вт1523:00+19ююз455629 0.0 101949
02:00+18юз4743100 0.0 1018102
05:00+17ююз3452100 0.0 101862
08:00+22юз4752100 0.0 1017227
11:00+27юз5739100 0.0 1016804
14:00+30зюз683079 0.0 10142694
17:00+27зсз6948100 0.0 1014868
20:00+21з5126992 0.1 1014387
16 июня, ср
ср1623:00+17зюз368945 0.1 101396
02:00+16юз359297 0.9 101384
05:00+17зюз369445 0.9 1013131
08:00+22зсз35705 0.0 1014409
11:00+27зсз35455 0.0 10141626
14:00+29зсз563968 0.0 10132485
17:00+28з564536 0.0 10121563
20:00+24сз12624 0.0 101131
17 июня, чт
чт1723:00+20зюз22725 0.0 101211
02:00+18юз228586 0.0 101129
05:00+17юз368532 0.1 1010119
08:00+22зюз59605 0.0 1009494
11:00+27зюз56458 0.0 10071051
14:00+27з6744100 0.0 10061322
17:00+27юз574756 0.0 10041706
20:00+20зсз61174100 0.2 1004381
18 июня, пт
пт1823:00+17зюз2397100 7.2 1005117
02:00+16зсз4998100 0.0 1002285
05:00+14ссз61195100 2.0 1003603
08:00+13с71193100 0.2 1005840
11:00+11с81289100 0.4 1008972
14:00+14с9126394 0.1 10091402
17:00+14с91259100 0.1 10111644
20:00+13ссв612581 0.0 10121166
19 июня, сб
сб1923:00+9ссз35690 0.0 101481
02:00+7ссз38625 0.0 1014136
05:00+7ссз311670 0.0 1015215
08:00+14с59495 0.0 1016731
11:00+17с710405 0.0 10152195
14:00+19с68355 0.0 10142217
17:00+20с57355 0.0 10132115
20:00+16с225599 0.0 101218